Weather in Boskovice

Czech Republic     49°29′18″N   16°39′40″E
temp.,
°C
wind,
m/s
gust,
m/s
humid.,
%
clouds,
%
prec.,
mm/h
press.,
hPa
HPBL,
m
17 may, mon
mon1723:00+8s2294100 0.1 100640
02:00+8s2297100 0.4 100663
05:00+9nw2297100 0.9 100564
08:00+8nw1897100 3.3 1005656
11:00+9nnw2695100 3.5 1006537
14:00+9wnw3893100 7.2 1006778
17:00+11wnw6982100 0.6 10071006
20:00+8wnw5118619 0.7 1009716
18 may, tue
tue1823:00+7wnw5138720 0.0 1010696
02:00+6wnw6139138 0.0 1011611
05:00+8wnw51080100 0.0 1011895
08:00+8w51185100 0.0 1012775
11:00+12wnw596498 0.1 10121504
14:00+13w576073 0.3 10121523
17:00+13wnw466378 0.3 10121429
20:00+9wnw248917 0.4 101378
19 may, wed
wed1923:00+7w31095100 0.2 1015287
02:00+6wnw31196100 0.2 1016376
05:00+5wnw2998100 0.0 1016337
08:00+8nw4784100 0.0 1016710
11:00+9nw4677100 0.4 1016896
14:00+11nw456998 1.3 10151294
17:00+12nnw465812 0.3 10141418
20:00+9nnw26835 0.3 1015163
20 may, thu
thu2023:00+5wnw23950 0.0 101649
02:00+4wnw28954 0.0 1017168
05:00+3nw310964 0.0 1017264
08:00+7nnw59755 0.0 1017508
11:00+12nnw566158 0.1 10181404
14:00+13nnw456148 0.6 10181515
17:00+12nnw587029 0.9 10171325
20:00+8nw511904 1.5 1019730
21 may, fri
fri2123:00+5nw412911 0.0 1021466
02:00+4nw412945 0.0 1022420
05:00+3nw311972 0.0 1022364
08:00+7nw37711 0.0 1022548
11:00+12nw344975 0.0 10201810
14:00+12wnw3450100 0.1 10191403
17:00+14wnw1247100 0.0 10161568
20:00+9ese2478100 0.0 101695